Location: Bartlegrosch
(47.1483°N, 9.5108°E)
Time: 00:08:38
(UTC+00:00)

Daily predictions for brighter satellites

Satellite Brightness Start Highest point End
(mag) Time Altitude Azimuth Time Altitude Azimuth Time Altitude Azimuth
ATLAS 3B R/B 4.5 01:38:53 23° NNE 01:38:53 23° NNE 01:41:43 10° NNE
Cosmos 2082 Rocket 4.4 02:08:03 19° E 02:08:03 19° E 02:11:22 10° ENE
Cosmos 1980 Rocket 4.1 02:14:46 25° E 02:14:46 25° E 02:17:57 10° ESE
Cosmos 1833 Rocket 4.1 02:32:37 34° ENE 02:32:37 34° ENE 02:36:01 10° NE
BREEZE-M DEB (TANK) 4.3 02:45:51 68° ESE 02:45:51 68° ESE 02:58:56 10° ESE
CZ-2C R/B 3.9 02:45:09 10° NNE 02:48:28 33° ENE 02:48:28 33° ENE
Lacrosse 5 3.6 02:57:41 26° NNE 02:57:41 26° NNE 03:00:46 10° NE
IDEFIX/ARIANE 42P 4.5 02:58:38 10° N 03:00:23 21° N 03:00:23 21° N
ALOS 4.0 03:03:11 10° NNE 03:07:17 30° E 03:08:41 25° SE
NOSS 3-1 (C) 3.4 03:19:38 64° N 03:19:38 64° N 03:25:26 10° NE
PAYLOAD A 4.3 03:15:42 10° NNE 03:19:58 63° NNE 03:19:58 63° NNE
Cosmos 2278 3.7 03:21:44 59° N 03:22:48 78° ENE 03:28:31 10° SSE
ATLAS 3B R/B 4.3 03:26:07 18° NNW 03:28:06 20° N 03:33:02 10° NE
X-37B 3.5 03:31:20 16° E 03:31:20 16° E 03:32:07 10° E
BREEZE-M DEB (TANK) 4.1 03:29:32 48° SSE 03:29:47 49° SSE 03:33:06 10° E
USA 267 4.2 03:24:33 10° ENE 03:30:28 38° N 03:32:33 31° NW
COSMOS 2406 3.6 03:31:37 51° NNW 03:31:37 51° NNW 03:36:32 10° NNE
Cosmos 1932 4.3 03:32:30 45° NW 03:34:37 89° WSW 03:40:50 10° SE
Cosmos 1869 4.2 03:38:25 46° ESE 03:38:38 46° E 03:42:28 10° NNE
NOSS 2-3 (C) 4.2 03:40:02 51° N 03:40:02 51° N 03:44:11 10° NE
Genesis I 4.2 03:40:11 45° E 03:40:11 45° E 03:43:19 10° NE
Cosmos 2360 Rocket 4.5 03:36:32 10° N 03:40:52 22° NE 03:45:10 10° E
H-2A R/B 2.6 03:37:05 10° SSE 03:41:20 59° ENE 03:45:33 10° N
SeaSat 1 2.3 03:36:52 10° SSE 03:41:24 74° S 03:41:24 74° S
Meteor 2-8 Rocket 4.3 03:43:35 56° SW 03:44:51 72° W 03:51:00 10° N
ARIANE 5 R/B 4.3 03:42:13 10° N 03:43:59 19° NNW 03:43:59 19° NNW
FENGYUN 3A 3.7 03:43:07 10° NNE 03:48:35 76° ESE 03:52:12 22° S
ISS -2.2 03:50:13 33° ESE 03:50:13 33° ESE 03:52:36 10° ENE
Cosmos 2082 Rocket 2.1 03:49:55 59° SW 03:50:57 75° WNW 03:56:42 10° NNE
SL-08 R/B 4.5 03:46:05 10° N 03:52:21 81° E 03:58:29 10° S
USA 229 DEB 3.7 03:54:21 48° W 03:55:59 62° NW 04:02:51 10° NE
USA 229 3.7 03:54:26 48° W 03:56:04 62° NW 04:02:57 10° NE
Cosmos 1980 Rocket 2.2 03:56:42 53° W 03:57:22 56° WSW 04:02:54 10° S
Meteor 2-3 Rocket 3.7 03:51:49 10° NNW 03:57:26 61° W 04:03:04 10° S
Cosmos 1244 Rocket 4.4 03:55:42 10° NNW 04:01:47 65° W 04:07:55 10° S
Iridium 4 Rocket 3.3 04:03:36 27° SSW 04:06:24 67° W 04:11:13 10° N
Cosmos 2322 Rocket 3.2 04:01:19 10° NNW 04:06:46 46° NE 04:12:12 10° SE
ATLAS CENTAUR R/B 2.0 04:04:52 26° NNW 04:06:51 52° NE 04:10:57 10° SE
CZ-4B R/B 2.9 04:04:49 10° SE 04:07:47 35° ENE 04:10:43 10° N
METEOR-M 4.1 04:05:38 10° NNE 04:11:01 87° ESE 04:16:22 10° SSW
NOSS 3-1 (A) 3.5 04:10:50 41° W 04:12:30 54° NW 04:18:55 10° NE
ADEOS 3.9 04:07:41 10° NNE 04:12:54 66° ESE 04:18:05 10° S
Cosmos 1833 Rocket 3.5 04:14:19 31° WNW 04:14:45 31° NW 04:19:44 10° NNE
Cosmos 1110 Rocket 3.9 04:09:43 10° NNW 04:14:59 66° WSW 04:20:11 10° S
COSMO-SKYMED 1 3.0 04:13:06 10° SSE 04:17:23 62° ENE 04:21:41 10° N
Meteor 2-15 Rocket 4.3 04:12:08 10° SSW 04:18:17 72° WNW 04:24:27 10° N
CENTAUR R/B 4.4 04:12:20 10° NW 04:19:18 35° NNE 04:27:04 10° E
CSL-04 DEB 4.4 04:19:14 10° SSE 04:23:18 79° ENE 04:27:20 10° NNW
Cosmos 1862 3.6 04:20:18 10° N 04:24:22 70° E 04:28:24 10° SSE
Cosmos 1743 Rocket 4.2 04:20:22 10° N 04:24:49 59° ENE 04:29:13 10° SSE
SL-16 R/B 2.3 04:21:00 10° NNW 04:26:43 79° ENE 04:32:23 10° SSE
CZ-2C R/B 3.3 04:23:40 10° N 04:27:51 28° WNW 04:27:51 28° WNW
CREW DRAGON DEMO-1 DEB 3.1 04:28:39 49° S 04:28:39 49° S 04:31:06 10° SE
Meteor 1-31 Rocket 2.7 04:25:38 10° NNE 04:29:34 87° E 04:33:28 10° SSW
ERS-2 3.9 04:26:25 10° SE 04:29:41 33° ENE 04:32:59 10° N
Cosmos 1386 Rocket 4.5 04:25:08 10° NNW 04:31:34 77° W 04:37:56 10° S
Cosmos 1553 Rocket 4.0 04:25:17 10° SSW 04:31:36 61° WNW 04:37:53 10° N
Meteor 1-4 Rocket 3.4 04:28:07 10° S 04:31:46 52° E 04:35:23 10° NNE
PSLV R/B 4.5 04:28:31 10° N 04:32:10 29° WNW 04:32:10 29° WNW
Cosmos 2219 Rocket 4.5 04:28:03 10° N 04:32:19 21° NE 04:36:35 10° E
Cosmos 1417 Rocket 4.4 04:26:50 10° SSW 04:33:00 68° W 04:39:18 10° N
Cosmos 1766 Rocket 4.2 04:30:53 10° NNW 04:34:53 32° W 04:38:51 10° SSW
Cosmos 1048 Rocket 4.4 04:33:43 29° WSW 04:35:30 39° WNW 04:40:21 10° N
NOSS 2-2 (D) 3.8 04:34:43 13° SSW 04:37:36 50° SE 04:41:14 10° NE
Cosmos 494 Rocket 4.2 04:36:53 22° SW 04:39:58 49° WNW 04:45:00 10° NNE
Cosmos 1606 4.2 04:36:32 10° SSE 04:40:11 40° E 04:43:51 10° NNE
Lacrosse 5 3.3 04:36:53 14° NW 04:40:28 29° N 04:44:53 10° ENE
SKYMED 3 4.4 04:37:04 10° S 04:41:23 75° WSW 04:45:45 10° NNW
CZ-4B R/B 3.6 04:38:15 10° N 04:42:09 67° WNW 04:45:52 10° SSW
ALOS 2.9 04:40:30 10° N 04:44:43 34° WNW 04:47:11 20° WSW
Lacrosse 4 Rocket 3.7 04:41:08 10° NNW 04:44:52 25° NE 04:48:33 10° E
Cosmos 1269 Rocket 4.0 04:43:54 10° SSW 04:49:12 86° WNW 04:54:32 10° NNE
PSLV R/B 4.5 04:46:28 10° SSE 04:50:38 64° ENE 04:54:48 10° N
Cosmos 1408 Rocket 4.0 04:48:17 10° NNW 04:52:27 39° W 04:56:34 10° SSW
Cosmos 1484 Rocket 3.8 04:52:34 10° NNW 04:55:37 24° WNW 04:56:28 22° W
deb Chang Zheng 4 3.6 04:53:58 10° NNE 04:58:14 81° ESE 05:02:30 10° SSW
Cosmos 389 Rocket 4.5 04:59:23 13° NW 04:59:23 13° NW 05:00:27 10° NNW
Cosmos 1689 Rocket 2.8 04:56:51 10° SSE 04:59:37 52° ENE 05:02:23 10° N
MOS 1 Rocket 3.3 04:58:44 10° S 05:02:50 46° W 05:07:04 10° NNW
Cosmos 1500 Rocket 3.6 05:00:27 10° NNW 05:04:40 54° W 05:08:54 10° S
X-37B 1.0 05:03:37 21° WSW 05:05:28 49° SSW 05:08:32 10° ESE
SKYMED 2 3.9 05:01:21 10° S 05:05:28 42° W 05:09:38 10° NNW
H-2A R/B 2.7 05:05:26 10° N 05:09:20 77° WNW 05:13:14 10° SSW
Cosmos 1842 Rocket 4.1 05:06:08 10° SW 05:10:11 36° WNW 05:14:14 10° N
Cosmos 2333 Rocket 3.5 05:07:01 10° NNW 05:12:28 41° NE 05:17:54 10° SE
Cosmos 2221 3.1 05:08:27 10° SW 05:12:29 36° WNW 05:16:33 10° N
USA 267 4.0 05:06:31 10° E 05:12:41 46° NNE 05:18:51 10° NW
Sich 1 3.3 05:08:35 10° N 05:13:03 76° E 05:17:29 10° SSE
H-2A R/B 4.4 05:04:31 10° WSW 05:14:40 23° SSW 05:18:33 10° SSE
S3M 4.3 05:09:02 10° SW 05:14:45 41° WNW 05:20:32 10° N
SJ-7 4.4 05:13:14 10° NNE 05:17:15 83° ESE 05:21:14 10° SSW
H-2A R/B 3.6 05:15:03 10° SW 05:17:39 15° W 05:20:15 10° NW
SeaSat 1 4.2 05:18:04 10° SW 05:20:00 12° W 05:21:16 11° W
YAOGAN 6 2.5 05:16:33 10° N 05:20:09 82° WNW 05:23:40 10° SSW
ATLAS 3B R/B 4.4 05:15:57 10° NNW 05:21:20 24° NNE 05:26:53 10° ENE
Meteor PRIRODA 3.8 05:18:22 10° N 05:21:58 50° WNW 05:25:34 10° SSW
NOSS 3-2 (A) 4.4 05:17:16 10° NW 05:24:41 73° NE 05:33:09 10° SE
Cosmos 2360 Rocket 2.2 05:19:52 10° NNW 05:25:35 82° WSW 05:31:15 10° SSE
NOSS 2-2 (C) 3.3 05:22:45 10° WSW 05:26:10 53° NW 05:30:00 10° NNE
ISS -3.4 05:23:11 12° W 05:26:12 52° NNW 05:29:30 10° ENE
Cosmos 1992 Rocket 4.0 05:21:22 10° NNW 05:26:37 81° WSW 05:31:49 10° SSE
Envisat 3.0 05:22:44 10° N 05:27:50 78° WNW 05:32:54 10° SSW
Cosmos 1633 Rocket 3.8 05:25:28 10° N 05:29:51 58° ENE 05:34:11 10° SSE
COSMOS 2487 4.1 05:30:41 10° S 05:33:52 38° ESE 05:37:04 10° NE
Cosmos 1709 Rocket 4.4 05:29:54 10° NNW 05:35:50 43° W 05:41:47 10° SSW
Cosmos 2082 Rocket 3.8 05:32:18 10° W 05:36:04 18° NW 05:39:50 10° N
Cosmos 2251 Rocket 3.9 05:31:59 10° SSW 05:37:17 73° ESE 05:42:39 10° NNE
COSMOS 2428 3.7 05:35:29 10° NNW 05:41:02 49° NE 05:46:33 10° SE
